Hourly Data Report for September 23, 2013

All times are specified in Local Standard Time (LST). Add 1 hour to adjust for Daylight Saving Time where and when it is observed.

PETAWAWA AWOS 2
ONTARIO

45°57'00.000" N
77°19'00.000" W
130.10 m
6106396
71625
YWA

Download Data

Hourly Data (September 2013)
Hourly Data Report for September 23, 2013
Temp Definition
°C
Dew Point Temp Definition
°C
Rel Hum Definition
%
Wind Dir Definition
10's deg

Wind Spd Definition
km/h
Visibility Definition
km
Stn Press Definition
kPa
Hmdx Definition


Wind Chill Definition


Weather Definition


TIME
00:00 5.8 4.0 88 31 7 15.0 100.18      
01:00 5.1 3.8 91 30 9 15.0 100.21      
02:00 5.5 4.2 91 27 7 15.0 100.23      
03:00 5.7 4.1 89 28 11 15.0 100.25      
04:00 6.0 3.7 85 28 6 15.0 100.31      
05:00 5.7 1.5 74 32 17 15.0 100.35      
06:00 5.7 2.5 80 31 11 15.0 100.40      
07:00 5.6 1.6 75 33 19 15.0 100.47      
08:00 6.0 1.2 71 33 26 15.0 100.52      
09:00 6.0 1.7 74 30 13 15.0 100.58      
10:00 7.4 1.9 68 33 15 15.0 100.59      
11:00 7.9 1.9 66 29 7 15.0 100.59      
12:00 8.8 2.7 66 28 4 15.0 100.54      
13:00 10.8 3.6 61 29 13 15.0 100.50      
14:00 12.1 2.9 53 33 15 15.0 100.45      
15:00 12.7 2.7 51 32 15 15.0 100.42      
16:00 13.5 3.9 52 28 11 15.0 100.41      
17:00 12.9 3.8 54 28 11 15.0 100.44      
18:00 10.7 4.4 65 31 7 15.0 100.46      
19:00 9.3 4.3 71 32 7 15.0 100.47      
20:00 8.4 4.7 78 29 7 15.0 100.51      
21:00 7.2 4.3 82 26 6 15.0 100.53      
22:00 4.6 3.4 92 27 7 15.0 100.56      
23:00 3.7 2.7 93 27 6 15.0 100.54      

Notes on Data Quality.

Legend

  • E = Estimated
  • M = Missing
  • NA = Not Available
Date modified: